Theta_e
320 326 338 340 347 343 343 341 342 341 343 345 345 346 346 346 349 355 347 343 336 335 336 327 322 321 322 326 327 325 325 324 324 324 323 322 321 326 328 320 322 332 327 328 331 330 326 324 326
325 331 336 342 346 344 344 342 342 342 344 346 346 345 345 351 349 348 347 343 336 336 334 327 321 322 323 327 326 324 324 324 324 324 323 322 322 323 325 324 324 333 334 326 327 326 325 329 332
327 332 339 344 343 344 344 343 343 345 345 345 344 345 345 349 349 345 344 339 336 336 338 324 321 322 324 327 325 324 323 323 324 324 323 322 323 323 321 320 322 335 336 325 324 324 325 328 330
327 333 339 345 343 343 343 344 344 345 345 344 343 345 347 348 348 344 342 338 334 336 336 321 322 322 326 327 324 323 323 324 325 327 324 320 323 324 321 320 321 330 331 324 323 324 327 329 331
328 333 343 345 343 343 343 342 344 345 344 343 342 343 346 349 347 343 340 337 332 334 336 321 323 323 326 326 324 323 323 325 328 327 322 321 321 325 322 320 320 322 324 325 324 324 326 331 334
333 334 343 345 343 341 344 342 344 344 343 343 342 340 346 348 346 344 338 334 331 333 335 326 323 323 326 326 324 323 324 328 330 325 322 324 322 322 325 322 321 321 322 324 326 329 330 334 335
333 337 340 338 341 343 343 342 344 344 343 343 341 341 345 347 345 345 341 334 331 332 334 335 325 324 326 326 324 323 326 330 327 322 324 325 326 323 322 325 323 323 323 324 327 331 333 335 333
332 335 338 336 343 345 342 343 341 342 343 342 341 343 344 347 346 345 343 337 331 332 333 336 337 335 329 326 324 323 327 331 328 325 325 326 326 326 323 321 326 325 325 326 328 329 334 335 333
328 337 340 341 343 342 340 339 340 339 342 343 342 344 343 347 346 345 344 340 332 331 332 336 337 337 337 337 326 323 326 331 329 327 327 327 335 333 331 330 323 326 327 328 328 330 332 333 330
331 338 338 336 335 334 331 330 330 339 342 344 344 345 346 346 345 344 342 338 333 331 332 334 337 337 336 337 337 335 334 336 335 336 330 337 334 335 335 331 324 323 324 326 327 330 332 331 332
331 338 333 330 329 328 329 329 327 333 338 340 345 346 347 346 345 342 340 337 332 330 331 332 336 337 336 337 339 338 337 337 339 339 336 338 336 333 335 335 334 332 325 331 327 328 333 334 334
330 331 331 330 328 328 330 327 328 331 337 340 343 346 347 346 344 341 339 336 331 329 331 332 334 336 336 336 337 338 336 337 338 339 338 339 338 338 337 336 337 337 335 335 334 334 335 335 334
328 330 330 329 328 329 328 328 331 333 339 342 343 346 346 345 343 340 337 334 332 329 330 332 333 331 328 334 337 337 336 335 336 338 339 338 339 340 340 339 338 337 337 337 336 336 337 337 336
326 328 329 327 328 329 329 330 335 341 341 343 344 345 345 344 342 340 334 331 330 329 330 331 333 325 324 324 330 335 335 335 334 336 338 332 338 339 340 340 340 339 339 337 336 335 336 337 335
324 325 327 328 328 330 332 334 340 342 342 343 344 345 343 343 340 338 334 331 333 333 331 331 331 325 320 320 320 324 334 333 335 334 331 331 334 334 335 340 340 340 340 342 339 338 337 336 335
324 325 330 332 328 331 334 336 338 340 342 343 343 344 342 341 340 339 337 337 337 338 338 333 330 327 320 320 320 323 332 332 334 335 334 329 333 334 334 340 341 342 343 341 339 339 338 337 336
324 328 330 330 328 334 335 335 334 338 339 342 344 343 343 342 341 340 338 338 339 341 342 340 331 330 328 323 320 321 324 323 327 333 333 331 332 334 336 340 342 344 344 343 342 340 339 339 337
325 325 329 331 330 333 335 334 330 328 335 338 342 344 343 342 341 341 340 339 339 341 342 342 337 335 333 331 329 326 326 328 327 329 333 332 332 333 334 337 340 343 344 344 344 342 340 340 339
324 326 328 330 328 328 332 330 329 332 334 338 341 343 344 343 342 341 340 340 340 341 336 334 336 336 336 335 335 333 332 331 331 331 331 332 331 333 334 337 341 343 343 344 345 346 343 341 337
323 324 325 327 326 327 329 329 335 336 340 342 343 343 345 345 344 343 342 341 340 340 338 335 335 336 336 337 337 336 336 335 335 334 332 332 332 332 334 334 340 340 341 343 345 344 344 337 336
323 323 324 325 325 325 326 329 334 340 344 345 344 344 344 344 344 345 345 344 343 342 339 335 335 335 335 336 337 337 337 336 336 335 336 335 333 332 333 334 334 337 341 341 342 342 341 340 339
324 324 323 323 324 326 327 332 337 342 346 344 341 341 341 344 344 342 341 344 345 345 344 344 338 338 338 338 338 338 339 340 339 339 339 339 340 336 333 333 333 335 338 343 340 337 338 340 339
323 323 323 323 324 325 327 328 341 342 347 345 341 339 339 340 342 344 345 346 344 344 342 342 343 337 336 337 338 340 339 341 341 340 341 341 340 341 336 338 339 338 334 335 335 335 338 338 339
323 324 325 324 325 327 327 327 344 346 350 345 341 339 340 345 346 346 347 347 347 347 346 343 339 334 333 333 333 334 336 339 340 340 341 340 340 340 341 338 338 335 336 335 336 332 331 329 332
326 327 328 326 326 328 331 328 352 349 345 345 341 339 343 344 344 343 345 346 347 347 347 347 347 340 335 332 333 335 335 337 338 341 340 341 340 341 342 339 337 338 336 334 333 333 334 335 334
327 329 329 330 330 329 331 335 351 346 345 342 338 342 344 343 342 342 342 343 342 344 343 346 345 343 341 340 339 340 339 340 341 341 341 342 341 338 336 335 334 334 337 336 334 332 335 335 333
328 329 329 331 330 330 334 348 350 347 345 339 341 343 343 342 342 340 340 342 345 344 345 344 344 343 343 342 342 341 340 340 340 336 336 338 336 335 335 334 335 335 334 333 333 334 333 334 332
327 327 328 329 330 330 337 343 342 348 346 342 344 345 343 342 342 341 339 343 342 341 343 345 345 343 344 342 341 341 340 338 337 336 336 335 335 334 334 335 335 335 334 333 332 332 331 326 319
327 328 328 329 331 330 335 337 343 345 344 346 344 343 342 342 341 341 340 340 340 339 338 341 341 341 341 341 341 340 339 338 336 334 334 334 336 335 334 333 331 331 326 325 325 322 319 319 317
328 327 329 329 331 328 332 344 342 346 346 345 344 342 342 342 341 341 340 339 338 338 337 334 335 335 336 338 339 339 338 337 337 336 336 334 331 328 329 326 325 323 322 320 318 318 316 316 317
Wind_Speed
3 4 2 4 6 3 7 10 5 6 5 4 5 1 6 7 11 5 13 14 18 19 18 16 14 13 12 11 9 7 6 6 5 5 5 5 6 6 5 5 5 5 6 6 7 6 6 5 5
2 2 4 6 5 8 8 6 7 8 4 5 6 3 1 7 9 10 16 18 20 19 18 16 15 14 13 11 8 7 6 5 3 4 4 4 6 6 6 6 7 6 5 7 7 7 8 7 7
2 3 7 5 3 11 10 7 5 8 7 5 3 2 3 5 5 15 14 22 21 18 17 17 16 15 14 11 8 8 6 4 3 3 3 3 6 5 5 7 9 8 6 6 7 7 7 7 5
2 4 6 7 10 11 8 6 5 6 4 1 2 6 5 4 8 11 21 22 20 18 16 18 17 16 15 11 9 8 6 5 3 2 2 2 6 5 7 7 9 8 5 7 7 8 8 7 5
3 6 5 2 6 6 6 2 3 3 2 3 0 5 4 5 11 18 22 20 19 18 15 18 18 17 14 11 9 8 7 6 4 2 4 4 6 6 7 8 8 8 7 7 7 7 8 7 6
7 5 7 1 4 4 6 1 3 2 3 4 2 5 7 9 14 18 20 19 18 18 16 17 17 16 14 11 9 8 8 6 4 4 5 5 6 6 7 7 8 8 8 8 7 7 8 6 5
11 7 5 3 5 3 6 2 3 4 2 2 4 4 8 12 16 17 19 18 18 17 16 15 16 16 14 12 10 8 8 7 5 6 6 5 5 6 6 7 7 7 8 7 6 7 7 7 5
6 6 3 1 3 11 4 2 2 4 2 5 5 3 10 18 19 17 18 18 17 17 16 15 15 15 13 11 11 9 10 8 7 8 7 6 5 5 6 5 6 6 6 6 6 6 7 6 5
3 6 1 4 2 7 5 2 2 3 2 5 6 3 9 22 22 19 19 18 19 18 17 16 15 14 13 11 11 10 10 9 8 8 6 6 4 5 5 6 5 6 6 6 5 6 7 6 2
8 7 3 3 5 5 3 6 6 6 7 6 6 5 15 23 22 22 22 21 21 20 19 16 17 15 14 13 11 10 10 9 8 7 5 5 5 6 6 5 4 4 5 5 6 6 6 3 1
5 7 4 4 2 8 8 10 6 9 4 4 9 13 18 21 22 20 20 19 21 20 20 18 17 17 15 13 12 10 10 9 9 9 7 6 4 3 3 1 1 1 2 1 2 4 2 4 4
8 7 6 2 5 8 12 15 11 8 3 5 5 14 19 21 21 21 20 19 21 21 21 19 17 17 17 13 12 11 10 10 9 10 10 8 5 5 5 4 4 3 3 5 4 5 6 6 6
12 6 9 9 11 13 13 14 9 4 2 4 10 14 16 16 18 17 17 18 20 21 21 21 19 19 18 17 12 12 11 11 10 10 11 9 8 7 7 7 5 5 6 6 7 7 9 9 9
5 13 11 9 11 12 12 11 3 3 6 9 11 12 13 16 17 17 17 19 20 19 20 19 19 20 19 18 16 13 12 12 12 12 12 13 10 10 9 8 7 7 8 9 9 9 10 9 9
9 10 12 12 11 8 8 11 7 5 7 9 10 11 13 15 17 18 18 18 18 17 17 20 21 21 21 20 19 17 13 13 12 13 16 16 15 14 13 11 11 10 11 12 12 11 11 12 10
12 11 12 12 7 8 6 3 12 4 6 9 10 12 13 16 17 17 17 17 17 16 16 17 19 20 21 21 20 18 15 15 15 15 15 18 18 17 17 15 14 12 12 11 12 12 12 11 12
10 13 18 11 7 4 10 5 9 3 3 8 9 9 11 15 16 16 17 17 18 18 17 18 19 18 18 20 22 21 20 20 20 19 19 20 20 21 21 18 16 16 15 14 13 13 14 14 13
13 15 8 11 8 11 12 9 2 4 5 5 5 9 9 9 13 15 16 18 19 19 20 20 20 20 21 21 22 23 24 24 24 25 23 24 24 24 25 23 22 20 18 16 15 15 16 15 17
6 10 11 11 7 5 6 5 4 7 7 5 4 5 8 10 9 14 17 18 19 20 22 25 25 25 26 27 27 28 29 28 29 29 29 29 28 27 28 26 22 21 22 21 19 19 17 21 21
12 13 14 6 5 8 6 8 4 8 11 11 10 6 5 8 11 12 15 19 22 23 25 27 27 28 29 30 31 32 26 25 27 28 31 33 33 32 31 29 25 24 22 22 22 22 19 23 25
13 14 13 10 7 8 7 11 8 8 10 10 12 8 4 4 9 13 15 16 18 22 25 27 28 29 29 30 32 34 34 36 32 33 31 32 34 35 33 32 31 28 27 23 25 26 30 30 29
14 12 9 11 10 11 11 12 12 8 9 12 13 13 11 8 5 8 9 13 15 17 19 22 25 28 32 34 34 34 32 29 29 26 23 22 23 29 31 33 33 32 28 25 28 28 34 33 32
10 2 11 13 13 13 12 9 9 9 6 10 12 14 13 12 10 8 4 1 3 7 12 17 22 24 26 29 32 32 33 26 22 21 21 21 24 23 25 24 26 29 33 32 31 31 29 30 33
6 7 6 8 10 10 17 11 7 4 5 8 11 13 14 15 14 13 11 8 7 6 5 5 11 14 13 16 20 25 28 25 21 18 17 16 16 17 18 19 22 26 26 27 25 28 33 38 36
12 12 8 9 8 6 7 8 11 9 8 8 10 13 14 16 17 17 17 15 15 14 12 9 5 2 5 7 9 13 15 15 15 13 12 12 12 12 11 13 14 15 18 20 25 26 30 27 26
18 16 9 11 11 9 7 7 8 9 7 9 11 12 14 16 17 18 19 18 17 19 17 16 13 9 6 3 1 2 4 1 3 5 5 5 3 7 7 9 14 17 17 17 16 13 16 16 17
15 14 13 4 1 6 8 7 7 8 8 10 11 14 15 15 16 18 18 19 21 20 19 17 14 10 9 8 6 5 4 5 3 2 2 3 2 6 9 9 6 5 6 10 9 9 12 8 5
9 16 10 9 9 11 6 13 10 13 10 10 10 13 12 12 14 15 16 16 17 19 18 15 14 13 11 10 10 8 7 6 3 2 1 4 7 7 4 5 5 2 1 5 7 10 14 19 24
9 10 10 5 4 8 7 9 13 12 11 11 11 9 10 11 12 14 15 15 16 17 18 17 15 14 13 12 9 6 6 3 1 1 3 7 6 8 9 10 12 18 21 19 20 20 16 16 16
18 15 16 9 10 7 7 7 11 12 13 12 11 9 9 10 10 12 13 13 14 15 13 13 12 11 12 9 6 4 3 3 4 3 10 12 15 16 18 18 16 15 15 16 17 17 15 15 15
Wind_Direction
280 332 283 275 222 205 66 59 348 20 68 71 118 284 19 29 7 36 145 145 157 155 159 162 159 150 146 134 121 111 106 92 79 71 77 86 94 105 118 147 154 145 154 158 157 145 137 131 118
235 309 286 275 272 78 76 33 12 34 84 131 133 142 11 70 52 118 144 148 149 154 156 164 161 152 148 139 132 126 107 93 70 62 64 72 86 105 120 131 145 137 135 156 160 151 146 134 127
202 258 271 291 314 52 58 24 56 96 125 144 112 359 12 61 82 136 155 148 150 151 156 167 161 155 155 146 142 126 117 107 87 59 61 76 96 109 113 128 148 136 140 138 149 147 138 128 124
269 250 237 268 57 71 32 34 106 121 98 100 27 84 86 66 140 150 147 149 151 153 155 165 162 161 157 148 145 134 129 123 110 78 81 100 111 119 115 127 150 159 141 135 142 140 136 129 120
263 254 249 209 79 60 53 14 208 78 102 101 184 86 78 97 128 141 148 150 151 154 161 166 164 163 160 152 151 138 135 130 113 102 97 112 121 128 119 125 136 151 146 141 138 134 133 131 118
246 270 242 58 79 42 75 94 169 275 78 109 111 101 90 128 138 147 151 153 157 159 161 172 167 164 163 159 155 147 141 126 116 91 102 123 114 127 123 124 131 142 143 143 138 133 140 137 115
273 261 47 18 27 152 39 29 258 22 108 120 153 82 121 146 152 151 154 159 163 163 164 165 171 169 169 166 164 158 147 135 113 98 110 131 124 120 126 132 132 139 143 143 139 138 142 133 109
273 272 210 82 87 75 82 115 352 256 59 149 185 141 160 166 158 156 159 164 168 171 171 171 175 175 175 176 174 168 155 148 125 116 116 121 128 125 113 115 141 147 150 151 151 153 152 137 117
259 249 206 106 129 100 116 318 55 342 171 205 184 112 138 165 162 162 166 171 174 179 180 176 179 182 174 185 188 177 169 160 145 134 124 112 123 123 95 153 147 149 158 157 157 158 161 150 108
241 262 103 58 77 30 339 311 336 249 187 191 169 140 148 161 169 173 176 179 181 185 186 184 184 187 182 184 193 179 182 179 172 172 158 124 163 151 162 147 136 143 147 159 161 162 164 160 238
196 256 131 171 306 319 314 302 332 268 262 223 197 173 162 169 175 182 186 188 188 190 191 189 195 187 190 189 188 190 195 196 200 193 180 182 170 163 124 190 93 155 152 155 170 177 190 234 235
231 237 232 229 298 294 309 321 308 280 351 28 148 168 167 175 182 186 191 193 191 194 197 196 198 197 190 196 197 199 197 203 201 209 202 200 187 204 191 196 209 207 257 230 231 247 238 249 259
234 224 244 252 282 290 304 293 298 286 159 129 146 158 169 179 187 191 196 196 193 198 200 202 201 202 203 202 207 201 205 212 211 215 219 209 208 211 217 227 222 234 242 259 260 265 270 274 272
191 241 250 262 272 282 285 305 273 108 156 150 153 161 171 180 188 192 193 194 197 200 205 204 207 212 209 213 214 216 214 218 218 222 223 225 217 227 221 231 234 243 248 247 247 254 264 275 270
230 243 223 235 255 277 298 261 215 129 164 169 173 171 175 181 187 196 196 196 198 202 205 209 211 217 219 222 226 226 226 227 227 227 230 230 229 234 228 234 234 234 241 244 249 254 259 261 261
226 229 237 215 218 226 247 170 88 117 187 202 196 183 180 185 192 196 199 200 202 199 205 210 213 219 225 228 232 231 229 230 233 235 232 236 233 233 233 233 237 241 245 245 245 247 254 260 257
209 233 213 173 202 212 228 278 99 72 245 242 204 205 199 191 194 199 202 205 204 209 209 217 222 222 231 232 236 239 240 242 238 240 239 241 239 236 237 235 239 241 245 245 246 248 250 252 257
211 221 216 228 173 218 204 253 314 12 311 299 249 217 218 211 212 207 208 210 212 215 221 225 231 233 240 245 245 246 247 247 245 243 244 244 243 242 242 241 239 238 243 247 248 243 237 243 239
272 243 243 204 124 246 217 249 10 5 5 349 302 263 227 219 212 213 214 216 217 221 231 238 242 244 243 247 247 248 249 250 251 251 251 249 248 245 246 246 249 249 244 244 240 240 241 236 252
224 228 226 207 209 259 185 245 80 36 44 33 18 344 260 226 208 213 215 216 220 224 231 237 241 247 251 253 255 253 250 249 253 253 255 257 253 252 248 252 248 250 252 254 249 245 239 249 250
219 231 231 240 165 226 257 233 184 98 69 42 29 13 360 286 249 231 230 227 228 229 236 243 245 246 248 251 255 254 249 253 254 256 256 260 259 254 253 251 257 253 251 253 260 254 256 262 260
225 211 247 236 229 237 192 249 165 148 89 49 32 24 19 18 337 238 238 238 243 249 249 247 255 256 256 254 251 253 252 249 256 258 258 260 259 263 259 257 259 260 255 254 250 262 269 260 263
242 174 236 229 227 246 206 240 133 159 74 43 32 28 28 34 43 49 50 8 283 274 256 250 257 253 251 254 256 249 254 253 262 262 263 257 256 259 266 262 256 258 263 260 267 270 270 276 277
190 192 186 215 220 219 232 224 103 101 57 53 43 38 38 46 51 55 53 50 33 4 336 304 253 266 256 251 257 257 250 257 258 261 263 274 276 275 280 271 263 266 269 272 269 274 271 268 273
200 189 185 201 199 238 147 208 70 100 77 49 50 55 53 47 47 49 53 48 41 33 30 31 19 322 263 256 256 259 256 257 262 261 268 274 284 290 274 280 265 266 265 274 282 283 282 261 277
202 203 232 210 206 163 161 196 118 103 89 70 73 72 58 50 47 45 46 43 41 46 47 47 55 56 56 51 331 264 243 250 281 265 249 274 279 287 304 316 296 292 290 289 282 288 328 278 273
184 221 247 269 359 215 139 79 132 154 111 93 86 75 59 53 51 44 43 42 48 46 51 57 62 71 67 58 65 72 88 113 166 209 86 71 4 320 325 334 345 332 308 312 308 306 306 271 122
244 204 201 229 177 219 172 175 148 171 138 123 103 78 68 65 61 49 45 47 47 52 50 55 60 58 62 62 73 83 93 97 108 123 358 336 325 341 318 333 325 322 46 73 86 82 79 88 85
188 208 231 253 294 228 172 204 119 140 140 124 97 88 78 74 61 54 54 58 54 51 50 53 50 55 59 60 65 75 78 87 181 224 329 350 41 57 68 76 87 92 88 84 81 77 69 64 67
206 211 200 217 180 249 316 106 137 137 130 118 115 99 83 77 65 61 57 61 55 47 49 48 48 49 49 43 35 22 360 333 336 55 96 90 94 96 95 94 90 82 80 73 70 71 69 67 69